EW3302 Weather Reports


time (UTC)temp
F
wind
direction
speed
knots
gust
knots
rain 1hr
in
rain 24hr
in
rain mn
in
humidity
%
barometer
mb
20260506102517 51 203 7.0 12.2 0.00 0.01 0.00 35 1011.8
20260506101517 52 180 7.8 14.8 0.00 0.01 0.00 33 1011.7
20260506100517 51 203 4.3 9.6 0.00 0.01 0.00 38 1011.8
20260506095517 52 225 4.3 9.6 0.00 0.01 0.00 36 1011.9
20260506094537 52 180 7.0 13.9 0.00 0.01 0.00 36 1012.0
20260506093517 51 158 7.0 12.2 0.00 0.01 0.00 34 1011.9
20260506092537 53 158 6.1 10.4 0.00 0.01 0.00 34 1012.0
20260506091537 51 180 7.0 13.9 0.00 0.01 0.00 36 1012.1
20260506090517 51 135 4.3 8.7 0.00 0.01 0.00 39 1012.1
20260506085517 50 113 3.5 7.0 0.00 0.01 0.00 38 1012.2
20260506084517 49 180 3.5 6.1 0.00 0.01 0.00 43 1012.4
20260506083537 48 113 3.5 7.0 0.00 0.01 0.00 44 1012.4
20260506082517 48 113 4.3 7.0 0.00 0.01 0.00 46 1012.5
20260506081517 47 23 2.6 7.8 0.00 0.01 0.00 44 1012.6
20260506080517 46 135 2.6 6.1 0.00 0.01 0.00 46 1012.6
20260506072517 44 45 0.9 2.6 0.00 0.01 0.00 53 1012.7
20260506071517 44 113 2.6 6.1 0.00 0.01 0.00 52 1012.7
20260506070517 44 23 1.7 4.3 0.00 0.01 0.00 53 1012.7
20260506062517 41 135 1.7 3.5 0.00 0.01 0.00 61 1012.7
20260506061537 40 90 0.9 2.6 0.00 0.01 0.00 63 1012.6
20260506060537 38 45 0.9 2.6 0.00 0.01 0.00 67 1012.5
20260506050516 31 293 0.9 1.7 0.00 0.01 0.00 83 1012.4
20260506044517 29 0.0 0.9 0.00 0.01 0.00 85 1012.3
20260506043557 29 0.0 0.9 0.00 0.01 0.00 86 1012.4
20260506042537 29 0.0 0.9 0.00 0.01 0.00 88 1012.3
20260506041516 28 0.0 0.9 0.00 0.01 0.00 90 1012.3
20260506040517 27 180 0.9 1.7 0.00 0.01 0.00 92 1012.2
20260506035536 25 0.0 0.0 0.00 0.01 0.00 91 1012.1
20260506034516 24 180 0.9 0.9 0.00 0.01 0.00 90 1012.0
20260506033517 24 180 0.9 1.7 0.00 0.01 0.00 90 1011.9
20260506032517 24 180 0.9 0.9 0.00 0.01 0.00 90 1011.8
20260506031516 24 0.0 0.9 0.00 0.01 0.00 89 1011.8
20260506030536 24 0.0 1.7 0.00 0.01 0.00 89 1011.8
20260506025517 24 0.0 0.9 0.00 0.01 0.00 89 1011.7
20260506024537 24 0.0 0.9 0.00 0.01 0.00 89 1011.7
20260506023516 24 180 0.9 3.5 0.00 0.01 0.00 90 1011.6
20260506022516 24 225 0.9 1.7 0.00 0.01 0.00 89 1011.6
20260506021516 24 225 0.9 1.7 0.00 0.01 0.00 89 1011.4
20260506020516 24 0.0 0.9 0.00 0.01 0.00 88 1011.4
20260506015517 25 225 0.9 1.7 0.00 0.01 0.00 88 1011.3
20260506014537 25 225 0.9 0.9 0.00 0.01 0.00 88 1011.3
20260506013537 25 0.0 0.9 0.00 0.01 0.00 88 1011.4
20260506012517 25 0.0 0.9 0.00 0.01 0.00 88 1011.3
20260506011517 25 225 0.9 1.7 0.00 0.01 0.00 87 1011.2
20260506010517 25 225 0.9 0.9 0.00 0.01 0.00 87 1011.1
20260506005517 26 248 1.7 2.6 0.00 0.01 0.00 87 1011.0
20260506004516 26 270 0.9 1.7 0.00 0.01 0.00 86 1010.9
20260506003516 26 270 0.9 1.7 0.00 0.01 0.00 86 1010.9
20260506002536 26 248 0.9 1.7 0.00 0.01 0.00 85 1010.8
20260506001516 26 248 0.9 1.7 0.00 0.01 0.00 85 1010.8
20260506000536 26 0.0 0.9 0.00 0.01 0.00 85 1010.8
20260505235517 27 248 0.9 1.7 0.00 0.01 0.00 84 1010.7
20260505234516 27 0.0 0.9 0.00 0.01 0.00 83 1010.8
20260505233516 27 0.0 0.0 0.00 0.01 0.00 83 1010.7
20260505232516 27 0.0 0.9 0.00 0.01 0.00 82 1010.6
20260505231536 28 0.0 0.9 0.00 0.01 0.00 82 1010.5
20260505230517 28 0.0 0.9 0.00 0.01 0.00 81 1010.5
20260505225556 28 315 0.9 1.7 0.00 0.01 0.00 81 1010.4
20260505224516 28 315 1.7 2.6 0.00 0.02 0.00 81 1010.5
20260505223516 28 0.0 1.7 0.00 0.02 0.00 81 1010.4
20260505222516 29 0.0 0.9 0.00 0.03 0.00 80 1010.3
20260505221536 29 315 0.9 1.7 0.00 0.03 0.00 79 1010.1
20260505220516 29 315 0.9 1.7 0.00 0.03 0.00 78 1010.1
20260505215516 30 315 1.7 2.6 0.00 0.04 0.04 77 1010.0
20260505214516 30 315 1.7 2.6 0.00 0.04 0.04 76 1010.0
20260505213515 30 315 1.7 2.6 0.00 0.04 0.04 75 1010.1
20260505212516 31 315 1.7 1.7 0.00 0.04 0.04 73 1009.9
20260505211516 31 293 1.7 1.7 0.00 0.04 0.04 72 1009.8
20260505210516 32 270 0.9 2.6 0.00 0.04 0.04 71 1009.8
20260505205516 32 0.0 0.9 0.00 0.04 0.04 70 1009.6
20260505204516 33 270 0.9 1.7 0.00 0.04 0.04 68 1009.5
20260505203516 34 270 0.9 1.7 0.00 0.04 0.04 66 1009.5
20260505202516 35 0.0 1.7 0.00 0.04 0.04 64 1009.4
20260505201516 36 248 0.9 1.7 0.00 0.04 0.04 62 1009.4
20260505200516 36 248 0.9 2.6 0.00 0.04 0.04 60 1009.3
20260505195515 37 248 0.9 1.7 0.00 0.04 0.04 59 1009.3
20260505194516 38 270 1.7 3.5 0.00 0.04 0.04 58 1009.3
20260505193516 38 270 1.7 2.6 0.00 0.04 0.04 56 1009.2
20260505192516 39 270 1.7 4.3 0.00 0.04 0.04 55 1009.1
20260505191516 39 270 1.7 3.5 0.00 0.04 0.04 54 1009.0
20260505190516 40 270 1.7 5.2 0.00 0.04 0.04 52 1009.0
20260505185515 41 270 1.7 2.6 0.00 0.04 0.04 51 1008.8
20260505184516 41 248 1.7 3.5 0.00 0.04 0.04 50 1008.6
20260505183515 42 248 1.7 5.2 0.00 0.04 0.04 47 1008.6
20260505182516 43 248 2.6 7.0 0.00 0.04 0.04 46 1008.5
20260505181516 43 270 2.6 7.0 0.00 0.04 0.04 49 1008.5
20260505180516 43 270 3.5 6.1 0.00 0.04 0.04 48 1008.4
20260505175516 43 270 2.6 4.3 0.00 0.04 0.04 49 1008.5
20260505174515 44 270 3.5 7.0 0.00 0.04 0.04 47 1008.4
20260505173515 45 270 2.6 6.1 0.00 0.04 0.04 46 1008.3
20260505172535 45 270 3.5 7.0 0.00 0.04 0.04 45 1008.2
20260505171516 44 315 4.3 8.7 0.00 0.04 0.04 45 1008.1
20260505170516 45 270 3.5 7.8 0.00 0.04 0.04 45 1008.1
20260505165515 45 270 3.5 6.1 0.00 0.04 0.04 44 1007.8
20260505164536 46 248 2.6 6.1 0.00 0.04 0.04 44 1007.9
20260505163515 45 248 1.7 3.5 0.00 0.04 0.04 49 1007.8
20260505162516 43 248 2.6 5.2 0.00 0.04 0.04 53 1008.0
20260505161515 42 203 4.3 7.8 0.00 0.04 0.04 56 1007.8
20260505160515 43 225 8.7 19.1 0.00 0.04 0.04 56 1008.1
20260505152515 46 338 1.7 5.2 0.00 0.04 0.04 40 1007.3
20260505151516 46 225 6.1 11.3 0.00 0.04 0.04 42 1007.5
20260505150516 46 270 8.7 18.2 0.00 0.04 0.04 40 1007.3
20260505140516 48 248 4.3 9.6 0.01 0.04 0.04 41 1007.1
20260505124515 49 248 3.5 9.6 0.00 0.03 0.03 38 1006.8
20260505123515 47 0 2.6 7.0 0.00 0.03 0.03 42 1006.8
20260505122515 46 293 2.6 6.1 0.00 0.03 0.03 42 1006.8
20260505121517 45 315 4.3 9.6 0.00 0.03 0.03 50 1006.9
20260505120517 44 270 5.2 8.7 0.00 0.03 0.03 52 1007.0
20260505115517 44 315 5.2 11.3 0.00 0.03 0.03 48 1006.8
20260505114537 46 315 7.8 13.0 0.00 0.03 0.03 49 1006.8
20260505113518 47 315 4.3 10.4 0.00 0.03 0.03 43 1006.4
20260505112517 45 248 2.6 6.1 0.00 0.03 0.03 48 1006.6
20260505111517 45 248 2.6 6.1 0.00 0.03 0.03 47 1006.7
20260505110517 46 270 2.6 7.8 0.00 0.03 0.03 45 1006.6